Home > Weather > Paphos > Past weeks

Flag for Cyprus Past Weather in Paphos, Cyprus — Yesterday and Last 2 Weeks

Now
88 °F

Passing clouds.


Feels Like: 100 °F
Forecast: 71 / 87 °F
Wind: 15 mph from West

Location: Paphos Airport

Current Time: Jul 30, 2016 at 2:22:30 PM

Latest Report: Jul 30, 2016 at 2:00 PM


Visibility: N/A

Pressure: 29.68 "Hg

Humidity: 70%

Dew Point: 77 °F

Location of PaphosLocation

Past Weather in Paphos — Graph

°F

Paphos Temperature Yesterday

Maximum temperature yesterday: 90 °F (at 2:30 PM)
Minimum temperature yesterday: 72 °F (at 6:00 AM)
Average temperature yesterday: 82 °F

High & Low Weather Summary for the Past Weeks

 TemperatureHumidityPressure
High91 °F (Jul 25, 1:30 PM)100% (Jul 16, 3:30 AM)29.89 "Hg (Jul 16, 3:30 AM)
Low70 °F (Jul 16, 4:00 AM)48% (Jul 25, 2:00 AM)29.59 "Hg (Jul 19, 3:30 AM)
Average81 °F75%29.70 "Hg
* Reported Jul 15 1:00 PM — Jul 30 1:00 PM, Paphos, Weather by CustomWeather, © 2016

Note: Actual official high and low records may vary slightly from our data, if they occured in-between our weather recording intervals... More about our weather records

Advertising

Paphos Weather History for the Previous 24 Hours

Scroll right to see more
 ConditionsComfort  
Time TempWeatherWind HumidityBarometerVisibility
1:00 PM
Sat, Jul 30
86 °FPassing clouds.15 mph75%29.65 "HgN/A
12:30 PM86 °FPassing clouds.16 mph75%29.65 "HgN/A
12:00 PM86 °FPassing clouds.15 mph75%29.65 "HgN/A
11:30 AM86 °FSunny.16 mph75%29.65 "Hg10 mi
11:00 AM86 °FSunny.14 mph75%29.65 "Hg10 mi
10:30 AM84 °FSunny.10 mph79%29.65 "Hg10 mi
10:00 AM84 °FClear.12 mph79%29.65 "Hg4 mi
9:30 AM82 °FClear.12 mph79%29.65 "Hg4 mi
9:00 AM82 °FPassing clouds.10 mph79%29.65 "Hg4 mi
8:30 AM82 °FClear.12 mph79%29.65 "Hg4 mi
8:00 AM81 °FPassing clouds.6 mph84%29.65 "HgN/A
7:30 AM79 °FSunny.5 mph79%29.65 "Hg10 mi
7:00 AM73 °FSunny.5 mph74%29.65 "Hg10 mi
6:30 AM70 °FClear.2 mph88%29.65 "Hg10 mi
6:00 AM72 °FClear.5 mph88%29.65 "Hg10 mi
5:30 AM73 °FMild.5 mph94%29.65 "HgN/A
5:00 AM75 °FMild.3 mph94%29.65 "HgN/A
4:30 AM75 °FMild.7 mph94%29.65 "HgN/A
4:00 AM75 °FMild.6 mph94%29.65 "Hg5 mi
3:30 AM75 °FMild.2 mph94%29.65 "Hg4 mi
3:00 AM77 °FClear.5 mph94%29.65 "Hg10 mi
2:30 AM77 °FClear.3 mph94%29.65 "Hg10 mi
2:00 AM79 °FClear.7 mph89%29.65 "Hg10 mi
1:30 AM79 °FClear.7 mph94%29.65 "Hg10 mi
1:00 AM79 °FClear.5 mph94%29.65 "Hg10 mi
12:30 AM79 °FClear.6 mph94%29.65 "Hg10 mi
12:00 AM81 °FClear.5 mph89%29.65 "Hg10 mi
11:30 PM
Fri, Jul 29
81 °FPassing clouds.3 mph89%29.65 "HgN/A
11:00 PM81 °FClear.6 mph89%29.65 "Hg10 mi
10:30 PM81 °FClear.5 mph89%29.65 "Hg10 mi
10:00 PM82 °FPassing clouds.5 mph84%29.65 "HgN/A
9:30 PM82 °FClear.12 mph84%29.65 "Hg10 mi
9:00 PM82 °FClear.12 mph84%29.65 "Hg10 mi
8:30 PM82 °FSunny.12 mph84%29.65 "Hg10 mi
8:00 PM82 °FPassing clouds.14 mph84%29.65 "HgN/A
7:30 PM82 °FPassing clouds.15 mph84%29.65 "HgN/A
7:00 PM84 °FPassing clouds.17 mph79%29.65 "HgN/A
6:30 PM84 °FPassing clouds.18 mph79%29.65 "HgN/A
6:00 PM86 °FPassing clouds.18 mph79%29.65 "HgN/A
5:30 PM86 °FPassing clouds.18 mph79%29.65 "HgN/A
5:00 PM88 °FPassing clouds.20 mph75%29.65 "HgN/A
4:30 PM88 °FPassing clouds.20 mph75%29.65 "HgN/A
4:00 PM88 °FPassing clouds.20 mph75%29.65 "HgN/A
3:30 PM90 °FPassing clouds.18 mph71%29.65 "HgN/A
3:00 PM88 °FPassing clouds.17 mph75%29.65 "HgN/A
2:30 PM90 °FPassing clouds.16 mph71%29.68 "HgN/A
2:00 PM88 °FPassing clouds.15 mph75%29.68 "HgN/A
Weather by CustomWeather, © 2016

See weather overviewHow to use our weather pages